Weather History for KRUE - January, 2013

Change the Weather History Date:

Thursday, January 10, 2013

  Actual Average (KHOT) Record (KHOT)
Temperature  
Mean Temperature 56 °F -  
Max Temperature 61 °F 47 °F 76 °F (1949)
Min Temperature 48 °F 28 °F -1 °F (1962)
Degree Days  
Heating Degree Days 9    
Growing Degree Days 6 (Base 50)    
Moisture  
Dew Point 54 °F    
Average Humidity 92    
Maximum Humidity 100    
Minimum Humidity 83    
Precipitation  
Precipitation 0.07 in - - ()
Sea Level Pressure  
Sea Level Pressure 29.94 in    
Wind  
Wind Speed 5 mph (East)    
Max Wind Speed 10 mph    
Max Gust Speed 20 mph    
Visibility 5 miles    
Events Fog , Rain    
Averages and records for this station are not official NWS values.
T = Trace of Precipitation, MM = Missing Value Source: NWS Daily Summary

Daily Weather History Graph

Daily Weather History Graph

Search for Another Location

Airport or City:

Trip Planner

Search our weather history database for the weather conditions in past years. The results will help you decide how hot, cold, wet, or windy it might be!

Date:

Astronomy

Jan. 10, 2013 Rise Set
Actual Time 7:21 AM CST 5:19 PM CST
Civil Twilight 6:53 AM CST 5:46 PM CST
Nautical Twilight 6:22 AM CST 6:18 PM CST
Astronomical Twilight 5:51 AM CST 6:48 PM CST
Moon 6:01 AM CST (1/10) 4:26 PM CST (1/10)
Length of Visible Light 10h 53m
Length of Day
9h 57m
Waning Crescent, 2% of the Moon is Illuminated
Jan 10
Waning Crescent
Jan 11
New
Jan 18
First Quarter
Jan 26
Full
Feb 3
Last Quarter

Hourly Weather History & Observations

Time (CST) Temp. Dew Point Humidity Pressure Visibility Wind Dir Wind Speed Gust Speed Precip Events Conditions
12:53 AM 52.0 °F 48.9 °F 89% 30.18 in 10.0 mi East 8.1 mph 16.1 mph N/A   Overcast
1:53 AM 52.0 °F 48.9 °F 89% 30.19 in 10.0 mi East 5.8 mph - N/A   Overcast
2:38 AM 51.8 °F 48.2 °F 88% 30.17 in 3.0 mi East 8.1 mph 17.3 mph 0.00 in Rain Light Rain
2:53 AM 51.1 °F 48.0 °F 89% 30.16 in 10.0 mi Variable 6.9 mph - 0.00 in   Overcast
3:01 AM 51.8 °F 48.2 °F 88% 30.17 in 10.0 mi East 10.4 mph 16.1 mph N/A   Overcast
3:44 AM 51.8 °F 48.2 °F 88% 30.13 in 8.0 mi East 8.1 mph 17.3 mph N/A   Overcast
4:53 AM 51.1 °F 48.9 °F 92% 30.09 in 6.0 mi Variable 5.8 mph 19.6 mph N/A   Overcast
5:34 AM 51.8 °F 48.2 °F 88% 30.09 in 7.0 mi Variable 5.8 mph - N/A   Overcast
5:53 AM 51.1 °F 48.9 °F 92% 30.07 in 5.0 mi East 5.8 mph - N/A   Overcast
6:53 AM 52.0 °F 50.0 °F 93% 30.07 in 5.0 mi East 8.1 mph - N/A   Overcast
7:05 AM 51.8 °F 50.0 °F 94% 30.07 in 3.0 mi Variable 6.9 mph - N/A   Overcast
7:53 AM 53.1 °F 51.1 °F 93% 30.06 in 9.0 mi East 5.8 mph - N/A   Overcast
8:34 AM 53.6 °F 51.8 °F 94% 30.06 in 10.0 mi East 4.6 mph - N/A   Overcast
8:53 AM 53.1 °F 51.1 °F 93% 30.05 in 8.0 mi ENE 8.1 mph - N/A   Overcast
9:31 AM 53.6 °F 51.8 °F 94% 30.04 in 5.0 mi East 4.6 mph - 0.01 in   Overcast
9:53 AM 55.0 °F 53.1 °F 93% 30.03 in 5.0 mi East 3.5 mph - 0.01 in   Overcast
10:04 AM 55.4 °F 53.6 °F 94% 30.04 in 6.0 mi Variable 3.5 mph - N/A   Overcast
10:14 AM 55.4 °F 53.6 °F 94% 30.02 in 6.0 mi Variable 4.6 mph - N/A   Overcast
10:36 AM 55.4 °F 53.6 °F 94% 30.02 in 10.0 mi East 5.8 mph - N/A   Overcast
10:53 AM 57.0 °F 54.0 °F 89% 30.01 in 10.0 mi East 4.6 mph - N/A   Overcast
11:02 AM 57.2 °F 55.4 °F 94% 30.01 in 10.0 mi East 5.8 mph - N/A   Overcast
11:53 AM 57.0 °F 55.0 °F 93% 29.95 in 10.0 mi East 5.8 mph - N/A   Overcast
12:12 PM 57.2 °F 55.4 °F 94% 29.96 in 10.0 mi Variable 3.5 mph - N/A   Overcast
12:19 PM 59.0 °F 55.4 °F 88% 29.96 in 10.0 mi Calm Calm - N/A   Overcast
12:53 PM 59.0 °F 55.9 °F 90% 29.91 in 10.0 mi East 6.9 mph - N/A   Overcast
1:53 PM 61.0 °F 57.0 °F 87% 29.88 in 10.0 mi Variable 3.5 mph - N/A   Overcast
2:41 PM 60.8 °F 57.2 °F 88% 29.85 in 1.8 mi East 3.5 mph - 0.01 in Rain Light Rain
2:53 PM 60.1 °F 57.9 °F 93% 29.84 in 2.5 mi Calm Calm - 0.01 in Rain Light Rain
3:03 PM 60.8 °F 57.2 °F 88% 29.85 in 3.0 mi ESE 3.5 mph - N/A   Overcast
3:11 PM 60.8 °F 57.2 °F 88% 29.85 in 2.0 mi Variable 4.6 mph - 0.00 in Rain Light Rain
3:15 PM 59.0 °F 57.2 °F 94% 29.85 in 1.8 mi ESE 4.6 mph - 0.01 in Rain Light Rain
3:22 PM 59.0 °F 57.2 °F 94% 29.85 in 1.5 mi Variable 4.6 mph - 0.01 in Rain Light Rain
3:29 PM 60.8 °F 57.2 °F 88% 29.85 in 1.5 mi Variable 5.8 mph - 0.02 in Rain Light Rain
3:35 PM 60.8 °F 57.2 °F 88% 29.84 in 2.0 mi Variable 3.5 mph - 0.02 in Rain Light Rain
3:51 PM 60.8 °F 57.2 °F 88% 29.85 in 3.0 mi Variable 3.5 mph - 0.02 in   Overcast
3:53 PM 60.1 °F 57.9 °F 93% 29.83 in 3.0 mi Variable 3.5 mph - 0.02 in   Overcast
4:08 PM 60.8 °F 57.2 °F 88% 29.84 in 2.5 mi East 4.6 mph - N/A   Overcast
4:12 PM 60.8 °F 57.2 °F 88% 29.84 in 3.0 mi Variable 3.5 mph - N/A   Overcast
4:22 PM 60.8 °F 57.2 °F 88% 29.84 in 6.0 mi Variable 4.6 mph - N/A   Overcast
4:37 PM 60.8 °F 57.2 °F 88% 29.83 in 7.0 mi ESE 3.5 mph - N/A   Overcast
4:47 PM 60.8 °F 59.0 °F 94% 29.84 in 1.8 mi Calm Calm - 0.01 in Rain Light Rain
4:53 PM 60.1 °F 59.0 °F 96% 29.83 in 1.2 mi Calm Calm - 0.02 in Rain Rain
5:01 PM 60.8 °F 59.0 °F 94% 29.84 in 3.0 mi Calm Calm - 0.01 in Rain Light Rain
5:08 PM 60.8 °F 59.0 °F 94% 29.84 in 5.0 mi SE 3.5 mph - 0.01 in Rain Light Rain
5:39 PM 60.8 °F 57.2 °F 88% 29.86 in 4.0 mi Calm Calm - 0.01 in   Overcast
5:53 PM 59.0 °F 57.9 °F 96% 29.84 in 2.5 mi Calm Calm - 0.01 in   Overcast
6:09 PM 59.0 °F 57.2 °F 94% 29.86 in 4.0 mi Calm Calm - N/A   Overcast
6:14 PM 59.0 °F 57.2 °F 94% 29.86 in 1.5 mi Calm Calm - N/A   Mostly Cloudy
6:31 PM 57.2 °F 57.2 °F 100% 29.86 in 0.5 mi Calm Calm - N/A Fog Fog
6:53 PM 57.9 °F 57.0 °F 97% 29.86 in 0.8 mi Calm Calm - N/A   Overcast
7:01 PM 57.2 °F 57.2 °F 100% 29.87 in 1.8 mi Calm Calm - N/A   Overcast
7:13 PM 57.2 °F 55.4 °F 94% 29.87 in 0.5 mi Calm Calm - N/A Fog Fog
7:53 PM 54.0 °F 54.0 °F 100% 29.87 in 0.5 mi Calm Calm - N/A Fog Fog
8:03 PM 55.4 °F 55.4 °F 100% 29.88 in 2.0 mi South 4.6 mph - N/A   Mostly Cloudy
8:10 PM 55.4 °F 55.4 °F 100% 29.89 in 4.0 mi Calm Calm - N/A   Scattered Clouds
8:26 PM 55.4 °F 55.4 °F 100% 29.90 in 1.5 mi Calm Calm - N/A   Clear
8:28 PM 55.4 °F 53.6 °F 94% 29.90 in 1.0 mi Calm Calm - N/A   Mist
8:47 PM 55.4 °F 53.6 °F 94% 29.91 in 2.0 mi WSW 3.5 mph - N/A   Partly Cloudy
8:53 PM 55.9 °F 54.0 °F 93% 29.90 in 7.0 mi Variable 3.5 mph - N/A   Clear
9:53 PM 55.0 °F 50.0 °F 83% 29.91 in 10.0 mi SW 4.6 mph - N/A   Scattered Clouds
11:53 PM 48.0 °F 46.0 °F 93% 29.90 in 10.0 mi Calm Calm - N/A   Clear